Weather in Jazan

Saudi Arabia     17°19′15″N   42°39′50″E
В апреле 2022 года жителям России запретили посещать сайт meteo.paraplan.net по решению Генеральной прокуратуры. Аудитория сайта уменьшилась в 10 раз. Владельцы сайта не видят смысла в поддержке погодного сервера в таких условиях. Сайт будет закрыт в октябре.
temp.,
°C
wind,
m/s
gust,
m/s
humid.,
%
clouds,
%
prec.,
mm/h
press.,
hPa
HPBL,
m
26 september, mon
mon2600:00+32wsw32585 0.0 1006270
03:00+31sse11617 0.0 1006117
06:00+30wsw22665 0.0 1007107
09:00+33wsw11562 0.0 1009720
12:00+38sw11330 0.0 10071745
15:00+40wsw85270 0.0 10031899
18:00+35w55435 0.0 1005719
21:00+33sw11520 0.0 1008461
27 september, tue
tue2700:00+32sse125579 0.0 1008447
03:00+32w225784 0.0 1007310
06:00+31wnw11625 0.0 100878
09:00+34nne01455 0.0 1008567
12:00+40sw32215 0.0 10062072
15:00+38wsw87291 0.0 10051183
18:00+35wnw54380 0.0 1006887
21:00+34nw33435 0.0 1008350
28 september, wed
wed2800:00+33w2246100 0.0 1007206
03:00+33se1146100 0.0 1006215
06:00+32wnw224894 0.0 1008160
09:00+35wnw21405 0.0 1008577
12:00+40sw32200 0.0 10051817
15:00+38w108321 0.0 10031014
18:00+35wnw55400 0.0 1005821
21:00+33wnw33481 0.0 1006277
29 september, thu
thu2900:00+32wsw22540 0.0 1005180
03:00+31s00565 0.0 100428
06:00+30wsw22583 0.0 100634
09:00+34sse12420 0.0 1006497
12:00+41sw42170 0.0 10041826
15:00+39w87260 0.0 10021177
18:00+35wnw44380 0.0 1003661
21:00+33w22473 0.0 1005184
30 september, fri
fri3000:00+32ssw115214 0.0 100499
03:00+31ssw22575 0.0 100448
06:00+30nnw11630 0.0 100619
09:00+33se22470 0.0 1007573
12:00+39ssw43240 0.0 10051884
15:00+37wsw76340 0.0 10041228
18:00+35w43390 0.0 1006907
21:00+33w21450 0.0 1007266